Wind_Speed
14 14 16 19 23 27 28 27 27 26 27 27 26 24 24 25 25 24 23 24 25 26 26 25 25 25 25 24 24 24 24 24 23 22 22 22 23 22 20 19 17 15 13 12 11 11 11 11 11 11 12 14 15 17 18 19 19 18 17 16 15 14 13
17 16 18 18 19 23 26 27 28 28 28 28 27 25 25 25 24 23 22 22 23 24 25 25 25 25 25 25 25 25 25 24 24 23 23 23 24 23 22 21 19 17 15 15 14 14 13 13 12 12 13 14 15 16 18 19 19 18 17 16 15 14 13
19 20 21 19 18 19 20 23 26 27 28 29 28 27 26 26 23 21 21 22 22 24 25 24 24 24 25 25 25 26 26 25 25 24 24 24 24 24 24 22 20 19 18 17 16 16 16 15 14 14 14 15 15 16 18 20 19 18 17 16 16 15 14
21 22 23 20 18 17 17 19 21 24 27 28 29 29 27 25 22 21 22 22 23 24 24 24 23 23 24 25 26 26 26 26 26 26 26 26 26 26 26 24 23 22 21 20 19 19 18 17 16 15 15 15 16 17 19 20 20 19 17 16 16 16 15
23 23 23 21 20 20 20 21 21 22 25 27 29 30 29 26 24 23 23 23 24 23 23 24 24 24 25 25 26 27 27 28 28 28 29 29 29 28 28 27 26 25 24 23 22 21 20 18 17 17 16 16 16 17 19 21 21 19 18 17 16 16 15
23 24 23 22 22 23 23 24 24 24 25 26 28 29 29 28 26 26 25 24 24 23 24 25 26 26 25 25 25 26 27 29 29 30 31 32 31 30 30 30 29 28 27 26 25 23 22 20 18 17 17 17 17 17 19 22 22 20 18 17 17 16 16
23 24 23 23 23 23 25 25 25 26 26 25 27 28 30 30 28 27 26 25 24 24 24 25 25 26 25 25 25 25 27 28 30 31 33 33 33 33 33 33 32 31 29 28 27 25 24 22 20 19 19 20 19 18 20 22 22 20 19 18 17 17 16
21 20 19 21 21 21 24 27 26 27 27 26 27 29 30 32 31 29 28 26 25 25 25 24 25 25 25 25 25 26 27 28 30 32 33 34 35 35 36 36 34 33 31 29 28 27 26 25 23 22 23 23 22 21 21 22 22 21 19 18 18 17 15
20 18 17 18 19 17 20 26 29 28 28 28 28 29 30 32 33 31 29 27 25 26 25 24 24 24 25 25 25 26 27 29 30 31 32 33 34 36 38 38 36 35 32 31 31 30 28 28 28 27 26 25 24 22 21 22 22 21 19 18 18 17 15
21 19 18 18 20 17 17 24 31 31 30 30 30 31 30 30 32 31 29 27 26 26 24 24 25 25 25 26 26 26 27 28 30 31 32 32 33 36 39 40 38 36 34 32 32 32 32 32 33 32 30 28 25 23 22 22 23 22 20 19 18 16 13
23 21 18 18 21 19 17 23 30 32 31 30 31 32 30 30 31 31 29 28 27 26 24 25 26 27 27 27 27 27 27 28 30 31 32 31 31 33 37 40 39 37 37 37 37 38 37 36 37 36 33 30 27 24 23 22 23 24 22 20 18 14 12
24 22 22 21 21 20 20 22 28 30 29 29 31 31 30 30 30 30 29 28 27 25 24 26 28 28 28 28 27 27 28 30 31 31 30 31 32 32 35 39 37 34 34 36 40 44 42 37 36 38 36 32 29 26 24 22 23 24 22 20 17 15 12
27 27 26 24 22 21 22 23 26 28 27 27 29 30 29 29 29 29 28 27 26 26 26 27 29 29 29 28 27 28 30 31 31 31 31 32 33 34 36 38 38 35 32 32 36 43 44 38 35 38 39 35 30 27 24 22 22 23 22 19 18 16 13
29 31 30 26 23 21 22 23 26 27 26 26 27 28 28 28 27 26 25 24 25 26 27 28 29 29 28 27 27 28 28 30 31 32 32 33 34 36 36 36 35 35 34 34 35 39 41 38 35 37 38 36 32 27 25 24 24 24 22 20 18 16 13
25 29 30 27 23 22 21 23 25 26 26 26 26 27 27 27 26 26 25 25 26 27 27 28 29 29 28 27 28 28 26 28 30 32 33 35 36 37 38 34 32 32 34 36 37 38 39 38 36 36 37 35 32 28 27 26 24 22 22 20 19 16 14
24 26 28 27 24 23 23 23 24 26 26 25 26 27 28 28 28 28 28 28 28 28 28 29 29 28 28 28 29 29 27 28 30 30 32 34 35 35 36 33 30 30 32 35 37 37 39 39 36 35 37 36 32 30 29 26 22 20 21 20 18 16 15
26 25 26 28 26 25 25 23 24 27 27 26 26 28 29 30 30 30 30 29 29 28 29 30 30 29 30 31 31 30 29 31 31 30 29 30 31 31 32 30 28 26 27 31 35 36 38 39 37 36 38 37 33 32 30 25 20 20 21 20 18 16 17
28 25 25 27 27 26 25 24 25 28 29 28 29 30 30 31 32 31 30 29 28 29 30 31 30 30 30 31 31 31 31 32 32 30 29 29 30 30 29 30 30 28 26 28 31 34 36 38 37 37 38 38 35 32 29 25 22 23 22 20 19 18 19
31 27 26 26 28 27 26 27 29 31 31 30 30 31 31 31 31 30 30 29 29 29 30 29 29 29 29 29 30 30 31 32 31 30 29 30 30 28 28 30 31 30 28 26 28 31 34 36 37 36 36 38 37 33 29 26 25 25 22 20 19 19 21
32 30 27 25 28 29 29 30 32 32 31 31 32 32 32 31 31 31 30 29 29 29 28 27 26 25 25 25 25 26 27 28 28 28 27 28 29 28 28 30 30 29 28 28 29 31 33 36 38 36 34 36 37 34 29 27 27 25 21 19 19 20 23
32 30 27 25 28 31 32 33 34 34 34 34 35 34 33 33 32 31 30 30 29 28 25 24 22 21 20 21 22 23 24 25 26 26 26 27 28 29 28 29 29 29 28 29 31 32 34 37 38 35 32 36 37 33 29 27 27 25 21 19 20 22 25
33 31 29 27 28 31 33 32 32 36 37 37 36 35 34 33 32 31 31 31 28 25 22 20 19 18 19 20 21 22 23 24 26 26 27 28 29 30 29 29 29 29 29 29 30 33 35 37 38 34 32 36 37 32 27 28 28 25 21 20 22 25 27
36 33 31 29 28 31 33 30 30 37 40 38 36 34 33 33 33 33 33 30 26 22 19 18 18 19 20 20 21 21 22 23 25 26 28 29 30 30 30 30 30 31 30 28 30 34 35 35 37 33 32 36 36 30 27 28 28 25 22 21 24 27 28
36 34 33 31 29 31 34 31 30 38 42 39 36 34 33 33 34 33 31 27 23 20 18 18 19 20 21 21 22 21 20 20 21 24 27 28 29 30 30 30 31 31 31 28 28 33 35 35 35 30 30 36 35 29 28 28 27 26 23 23 26 28 27
34 34 35 34 31 30 33 32 33 39 43 39 36 34 33 34 34 31 27 23 20 19 19 20 21 21 22 22 22 20 19 18 19 22 25 26 27 28 28 30 31 31 30 27 27 31 35 36 32 27 31 37 34 29 29 28 27 26 25 25 28 28 26
35 36 36 36 34 31 31 32 36 41 42 39 36 35 34 34 32 29 25 22 21 21 21 21 22 21 21 21 21 20 19 19 20 22 24 26 27 27 29 31 31 31 31 28 27 31 35 35 30 28 34 38 34 32 33 31 28 28 26 26 27 25 24
36 37 37 37 36 33 31 35 39 41 41 40 38 36 35 35 32 29 26 25 24 24 23 22 21 21 21 20 20 19 18 18 19 22 24 26 28 29 30 31 32 32 31 29 29 32 34 34 31 31 35 37 35 35 34 30 28 28 26 25 24 23 23
36 37 37 36 33 31 33 39 42 41 41 40 38 37 36 34 32 29 28 29 28 27 25 24 22 21 20 19 18 17 18 19 21 23 25 27 28 29 29 30 31 32 32 30 31 33 34 33 31 32 35 38 37 34 31 29 28 28 26 23 22 22 21
33 33 32 31 30 31 37 42 43 41 41 40 39 37 35 32 31 31 32 32 30 28 26 24 23 21 19 18 19 19 20 21 23 24 26 27 28 28 29 30 30 30 31 31 31 33 33 31 31 33 37 39 36 32 30 30 30 29 25 22 21 20 20
27 27 27 28 31 35 38 40 41 41 40 38 36 33 29 28 30 32 33 33 32 30 28 25 23 22 21 22 23 23 23 23 24 25 27 27 28 29 30 29 28 28 29 31 31 32 32 31 32 34 37 36 33 30 30 31 29 25 22 21 21 21 21
23 24 27 31 34 36 35 35 35 35 34 31 29 27 27 30 32 32 33 33 31 28 26 24 24 24 24 25 26 26 25 25 26 27 28 28 29 30 30 28 27 28 29 30 31 32 33 33 33 34 34 32 30 30 31 30 25 21 21 23 24 24 24
27 29 31 33 34 33 31 29 27 27 27 27 29 31 33 36 36 35 33 31 27 25 24 24 25 26 27 27 28 27 27 27 27 28 29 28 29 30 30 28 27 27 28 30 32 34 35 34 33 32 31 30 29 29 28 24 21 22 26 28 28 26 24
31 32 32 31 31 30 29 27 27 28 30 32 35 36 36 35 34 32 30 27 25 26 27 27 28 29 29 29 28 26 26 26 27 27 27 27 28 30 30 28 28 27 28 31 34 36 35 32 30 28 28 28 27 25 23 22 25 30 33 32 28 24 22
32 32 32 31 31 30 30 29 28 29 29 29 30 30 30 29 28 27 27 26 27 27 27 27 28 29 30 30 27 25 26 26 26 26 25 25 28 29 29 29 29 28 29 32 35 35 33 29 27 27 27 25 25 24 25 28 32 33 32 29 25 23 24
31 30 29 27 25 24 22 22 21 22 22 23 23 23 24 25 26 26 26 26 26 25 26 27 29 30 29 28 26 25 26 26 25 24 24 25 27 27 27 28 28 27 29 33 35 32 29 26 26 28 27 25 24 25 27 29 31 29 26 24 24 25 26
25 24 22 20 19 18 17 17 18 19 20 20 21 21 22 23 24 24 23 23 23 24 26 27 28 27 26 25 25 25 25 24 23 23 23 24 26 26 25 28 29 28 30 33 33 30 26 25 27 28 26 24 24 25 26 28 29 27 25 24 25 26 27
23 21 20 19 18 18 18 18 19 19 19 19 20 20 20 21 21 20 20 22 23 25 26 25 24 24 24 24 24 24 23 22 22 22 21 22 24 24 24 26 27 28 31 32 30 27 26 26 26 26 24 24 25 26 28 29 29 26 25 25 26 27 28
20 19 18 17 16 16 16 16 16 17 18 18 19 19 20 20 20 20 21 23 23 23 22 21 22 23 23 23 23 23 22 21 21 20 18 19 22 22 22 24 24 24 25 25 23 21 22 23 23 23 24 25 27 28 29 30 28 26 26 27 27 28 30
Wind_Direction
244 241 237 239 238 236 234 233 232 228 223 220 218 216 215 213 213 213 211 208 206 205 206 206 204 205 205 206 206 206 207 208 209 209 208 207 208 212 216 218 220 224 229 238 249 261 273 283 295 309 320 328 334 335 334 333 333 335 334 329 322 317 313
233 234 232 231 232 233 234 233 232 232 230 225 221 218 217 217 216 216 213 210 207 207 208 208 208 208 209 209 209 209 210 212 212 212 211 212 214 216 220 223 226 230 236 243 251 261 270 279 289 300 311 321 327 330 331 331 330 330 329 325 320 316 313
228 229 230 228 228 229 231 233 231 232 234 231 227 224 222 221 220 220 218 214 212 211 211 212 212 213 213 213 213 213 214 215 216 216 216 217 219 221 224 228 231 236 241 246 252 259 266 274 283 292 302 313 321 325 327 328 327 325 323 321 319 316 313
229 227 229 228 228 229 229 232 232 230 234 235 233 232 231 227 224 223 221 219 218 217 217 217 217 217 217 217 217 217 217 219 221 221 221 222 223 225 228 232 235 238 241 245 250 256 262 269 277 286 296 306 314 318 323 325 324 320 317 317 318 316 313
233 229 230 229 227 227 226 228 229 228 231 234 234 235 234 230 225 224 224 222 222 222 222 222 221 221 221 220 220 220 220 222 223 224 226 227 227 228 232 234 236 238 240 243 248 253 258 265 272 281 290 298 307 313 319 322 320 316 312 312 314 313 310
235 233 233 232 229 228 228 229 231 231 232 233 234 236 234 230 226 224 224 224 223 223 223 223 223 224 224 223 224 224 224 225 226 227 229 230 230 231 233 236 238 239 240 243 247 251 256 261 268 278 287 293 300 306 314 318 316 312 308 307 310 310 307
243 242 241 240 237 233 230 231 232 233 234 232 233 235 233 231 229 226 225 225 223 223 224 225 227 227 226 226 227 227 227 228 229 231 232 233 234 234 236 238 239 240 241 243 247 251 256 260 264 274 285 291 294 299 307 313 312 308 303 303 306 307 306
250 247 246 246 245 240 232 229 229 231 232 231 232 233 230 229 230 228 227 227 226 225 225 225 228 230 229 229 230 230 231 232 232 234 236 237 237 239 240 241 241 242 242 245 249 253 257 260 263 273 284 287 288 293 302 308 308 304 300 301 304 306 305
244 239 243 248 250 247 238 227 221 224 230 232 234 235 230 228 229 230 229 229 229 229 228 227 228 229 228 229 233 236 237 238 237 236 239 241 242 243 244 244 244 245 246 248 251 254 257 261 265 273 282 283 282 287 295 302 302 299 298 300 302 303 304
237 236 242 247 250 253 246 228 219 221 229 233 235 236 231 227 228 229 229 228 229 231 231 230 229 227 226 229 236 241 241 239 238 239 241 245 247 246 245 244 245 245 247 250 252 251 252 259 265 270 275 276 278 282 288 296 298 295 296 298 298 300 301
239 240 247 249 249 252 248 231 221 222 228 233 236 237 233 229 228 227 226 226 227 229 230 230 231 230 229 232 240 244 241 238 239 242 244 249 254 253 249 248 248 247 247 250 252 251 253 259 262 263 267 270 273 277 282 290 294 292 293 294 293 293 292
246 247 252 254 251 250 246 235 226 224 226 230 234 235 234 233 230 227 225 225 225 225 226 228 231 234 234 236 242 243 240 240 244 249 252 255 258 260 259 260 264 264 261 258 257 257 262 266 262 258 261 266 267 271 277 284 290 291 290 289 286 284 284
255 254 256 256 251 248 244 237 230 225 222 225 230 233 234 234 230 228 227 226 223 223 225 228 231 235 237 239 241 241 242 245 250 254 260 263 262 263 264 268 272 273 272 270 264 261 264 268 262 254 256 261 264 268 273 277 285 289 287 284 280 278 280
256 255 255 252 247 246 243 240 235 226 218 218 224 229 231 230 228 227 228 226 223 224 227 230 233 236 240 242 242 243 245 249 253 257 264 268 268 269 270 274 278 276 271 270 268 264 264 266 265 259 257 259 262 264 266 272 281 285 282 277 274 274 276
262 258 251 243 240 239 241 245 240 224 212 213 220 224 226 226 224 225 226 224 221 224 230 233 235 238 241 244 246 246 247 249 254 258 263 266 269 272 274 279 283 280 274 271 270 267 264 264 266 264 261 260 260 258 261 270 279 279 274 271 270 270 276
266 262 244 233 232 234 237 243 235 215 206 209 217 222 222 222 222 223 225 224 225 229 233 235 237 238 240 243 246 248 248 249 251 253 256 261 265 270 274 278 278 274 271 270 270 268 264 262 265 265 262 261 259 255 259 268 274 270 266 265 267 270 279
263 265 245 230 229 231 232 233 221 210 206 208 213 219 220 219 221 222 223 225 227 229 231 235 238 239 242 245 247 249 250 251 253 252 252 256 260 264 270 273 272 268 265 265 267 266 263 261 263 263 261 261 257 254 258 264 265 263 262 262 265 273 281
257 261 252 237 230 229 229 226 217 212 210 207 210 216 218 219 221 222 224 226 228 230 233 238 241 243 246 248 250 253 254 256 258 257 255 256 258 260 262 267 270 270 265 262 261 262 261 260 261 260 259 258 256 254 257 258 255 256 259 259 265 274 280
249 254 256 243 230 225 225 224 219 214 210 207 210 215 218 219 221 222 225 228 231 234 237 241 244 246 249 252 254 257 258 259 260 260 260 260 259 258 260 265 271 273 270 265 259 257 258 259 259 259 256 254 253 253 256 255 252 251 255 258 265 273 279
244 250 253 244 230 223 222 222 218 211 206 206 210 215 217 218 220 222 225 228 230 234 236 239 243 247 251 256 259 262 263 263 264 263 263 263 262 262 264 268 272 274 275 271 262 256 256 257 258 258 254 250 249 250 254 254 250 248 251 257 265 273 277
242 246 247 240 230 223 221 224 220 210 205 207 212 215 216 218 220 222 224 226 227 230 235 239 245 252 257 263 267 268 268 268 267 266 266 265 266 267 270 272 274 275 275 271 264 258 256 256 258 257 249 244 245 249 252 249 245 246 251 257 265 271 275
242 244 245 241 235 227 225 228 223 212 209 212 214 215 216 219 221 223 224 224 226 230 236 242 250 260 266 270 271 271 271 269 267 267 267 269 271 272 274 274 274 275 275 270 263 260 257 255 258 255 243 239 244 248 246 242 242 246 250 255 263 268 273
239 242 243 243 240 232 229 232 224 215 214 216 216 216 217 219 222 223 222 224 227 233 241 249 258 265 269 271 273 273 274 272 270 269 269 270 273 275 276 276 274 275 276 271 262 261 259 255 256 252 238 235 241 244 240 238 242 246 249 255 262 268 275
237 241 243 243 240 231 228 232 226 216 214 216 216 217 219 221 221 221 222 226 233 240 248 255 261 266 269 272 274 275 275 277 277 275 274 276 278 278 277 277 275 275 276 270 259 258 259 256 255 248 235 234 239 240 236 235 240 245 249 256 263 270 279
234 239 241 239 236 231 229 229 223 215 213 215 217 219 220 220 220 222 226 233 239 245 252 257 262 266 270 272 274 274 275 276 278 278 279 280 281 279 278 278 277 275 273 267 258 254 254 255 252 241 232 234 236 235 233 231 236 243 248 256 265 273 282
228 233 234 231 231 234 232 224 217 214 214 215 217 219 219 221 223 226 232 238 244 250 255 260 264 268 270 271 272 274 275 275 276 277 280 281 281 279 279 278 276 275 271 265 257 252 250 250 246 236 233 235 233 230 230 229 234 242 249 257 267 277 283
223 224 225 226 230 235 229 216 211 212 214 216 217 218 219 222 225 230 236 243 249 254 258 262 264 266 268 270 273 275 277 278 279 280 281 282 280 279 279 278 275 272 269 262 252 248 248 246 240 233 232 234 231 229 229 231 236 245 252 261 270 276 278
223 221 223 227 231 231 219 208 205 208 211 213 215 217 219 222 227 233 241 247 251 255 258 261 263 264 266 270 276 281 285 285 284 284 283 281 280 279 278 277 273 269 266 258 247 244 244 240 231 226 227 232 233 230 229 233 241 249 255 262 267 268 270
225 225 227 228 225 218 210 206 205 206 208 210 213 214 216 220 228 236 242 246 250 253 256 257 258 260 263 268 276 285 291 290 287 287 286 284 282 280 277 276 272 266 261 254 246 243 239 229 220 221 227 233 233 229 229 236 244 249 253 256 258 261 270
221 221 218 213 207 204 202 203 204 203 203 205 207 207 212 223 233 238 242 246 249 251 253 255 257 260 267 275 283 289 293 291 290 290 290 287 284 281 279 276 270 262 255 251 246 240 230 219 217 223 230 233 231 228 232 240 244 247 252 253 253 262 278
200 203 202 198 196 195 196 200 203 203 203 205 208 216 226 234 238 240 243 246 248 250 254 258 264 271 279 287 293 295 294 292 292 292 289 286 283 281 279 273 263 255 251 248 242 233 222 217 219 225 228 228 227 231 239 244 245 248 250 250 255 269 282
183 186 189 190 191 192 193 196 201 207 214 222 230 235 235 235 237 241 244 246 249 253 260 267 274 280 287 293 295 293 289 288 288 286 285 282 280 279 275 267 257 254 250 243 235 228 222 218 219 222 223 224 228 235 240 242 243 246 250 256 264 275 282
177 179 181 184 187 191 195 200 207 215 221 228 233 233 232 235 240 245 249 253 258 266 273 279 283 286 291 293 291 286 283 283 282 281 280 279 278 277 272 262 255 254 249 238 230 223 220 219 222 226 225 226 231 234 234 237 245 253 260 267 272 274 277
172 174 177 180 183 187 192 198 206 212 216 220 225 227 232 239 245 250 256 263 271 277 281 285 288 290 292 290 285 281 280 280 280 279 278 275 274 274 268 258 251 246 237 227 221 218 216 218 224 228 226 226 229 232 237 247 257 264 268 272 273 276 281
169 171 173 175 178 183 189 195 202 208 212 218 225 231 237 244 251 258 266 273 278 282 285 288 290 291 289 285 281 280 279 279 279 278 276 274 273 271 263 252 245 238 225 216 215 218 220 219 219 223 226 228 232 239 248 260 268 270 269 269 273 281 289
168 170 173 178 184 191 200 207 213 217 221 228 236 243 250 256 262 269 273 277 281 284 287 289 289 287 283 280 279 278 277 276 278 279 277 276 275 271 261 248 237 225 215 213 217 220 220 218 219 223 227 230 237 248 260 269 273 271 267 269 275 283 290
177 182 188 196 203 210 217 222 227 232 237 244 251 257 262 266 271 275 278 281 285 286 287 286 284 280 278 276 276 275 275 277 279 277 276 276 273 269 263 252 235 217 209 211 216 216 215 219 225 227 229 236 246 258 267 272 271 268 267 273 278 284 292
188 196 204 211 218 224 230 236 241 247 253 259 264 268 272 275 278 281 283 284 285 284 284 282 278 274 272 272 273 273 272 274 275 272 270 272 271 263 253 241 229 218 212 211 213 215 221 229 234 234 239 250 259 267 272 272 269 267 270 275 281 288 297
Height
3156 3158 3159 3160 3161 3163 3164 3166 3167 3168 3170 3171 3172 3174 3175 3176 3177 3179 3180 3182 3184 3185 3187 3188 3190 3191 3192 3194 3195 3196 3197 3198 3199 3200 3201 3202 3203 3204 3205 3205 3205 3205 3205 3205 3205 3205 3205 3205 3204 3204 3203 3203 3202 3201 3200 3199 3198 3197 3196 3195 3194 3193 3192
3154 3155 3156 3157 3158 3160 3161 3163 3165 3166 3167 3169 3170 3172 3173 3174 3175 3177 3179 3180 3182 3184 3185 3186 3188 3189 3191 3192 3193 3194 3195 3196 3197 3199 3200 3200 3201 3202 3203 3203 3203 3204 3204 3204 3204 3204 3204 3203 3203 3203 3202 3201 3201 3200 3199 3197 3196 3195 3195 3194 3193 3192 3191
3152 3153 3153 3154 3156 3157 3159 3160 3162 3163 3164 3166 3168 3169 3170 3172 3174 3176 3177 3179 3180 3182 3183 3184 3186 3188 3189 3190 3191 3192 3193 3194 3195 3197 3198 3199 3200 3200 3201 3201 3202 3202 3202 3202 3202 3202 3202 3202 3201 3201 3200 3200 3199 3198 3197 3196 3195 3194 3194 3193 3192 3191 3190
3149 3150 3151 3152 3154 3155 3156 3157 3159 3160 3162 3163 3165 3166 3168 3170 3172 3174 3175 3177 3178 3180 3181 3183 3184 3186 3187 3188 3189 3190 3191 3192 3194 3195 3196 3197 3197 3198 3199 3199 3200 3200 3200 3200 3200 3200 3200 3200 3199 3199 3199 3198 3197 3197 3196 3195 3194 3193 3192 3191 3190 3189 3188
3147 3148 3149 3150 3152 3152 3153 3154 3156 3157 3159 3161 3163 3164 3166 3168 3170 3172 3173 3175 3176 3178 3179 3181 3182 3183 3184 3186 3187 3188 3189 3190 3192 3193 3193 3194 3195 3196 3197 3197 3197 3198 3198 3198 3198 3198 3198 3198 3197 3197 3197 3196 3196 3195 3194 3193 3192 3191 3191 3190 3189 3188 3187
3144 3145 3147 3148 3149 3150 3151 3152 3153 3155 3156 3158 3160 3161 3164 3166 3167 3169 3171 3172 3174 3176 3177 3178 3179 3180 3182 3183 3185 3186 3187 3188 3189 3190 3191 3191 3193 3194 3194 3194 3194 3194 3195 3195 3195 3195 3195 3195 3195 3195 3195 3195 3194 3193 3193 3192 3191 3190 3189 3188 3187 3186 3185
3141 3143 3144 3146 3147 3148 3149 3150 3151 3153 3154 3156 3157 3159 3161 3163 3165 3166 3168 3170 3171 3173 3174 3175 3176 3178 3180 3181 3182 3184 3185 3186 3187 3187 3188 3189 3190 3190 3190 3190 3190 3190 3191 3192 3192 3192 3192 3192 3192 3192 3193 3193 3192 3191 3191 3190 3189 3188 3187 3186 3185 3185 3184
3139 3140 3141 3142 3144 3145 3146 3147 3149 3150 3151 3153 3154 3156 3158 3160 3161 3163 3165 3167 3169 3170 3171 3173 3174 3176 3177 3179 3180 3181 3182 3183 3183 3184 3184 3185 3187 3187 3186 3186 3187 3187 3188 3189 3189 3190 3190 3190 3189 3189 3190 3191 3190 3189 3188 3188 3187 3186 3185 3184 3183 3183 3182
3136 3138 3138 3139 3140 3142 3143 3144 3145 3147 3148 3150 3151 3152 3155 3156 3158 3160 3162 3164 3166 3167 3169 3170 3172 3173 3175 3176 3177 3178 3179 3179 3180 3181 3182 3183 3184 3183 3183 3183 3184 3185 3186 3186 3186 3187 3187 3187 3187 3187 3187 3188 3187 3186 3186 3185 3185 3184 3183 3182 3181 3180 3180
3134 3135 3136 3136 3137 3138 3139 3140 3141 3143 3145 3147 3148 3149 3151 3153 3155 3157 3159 3162 3163 3165 3167 3169 3169 3170 3172 3173 3174 3174 3175 3176 3177 3178 3179 3180 3181 3180 3180 3180 3182 3183 3183 3183 3183 3183 3183 3183 3183 3184 3184 3184 3184 3183 3183 3183 3182 3181 3180 3179 3179 3178 3178
3131 3132 3133 3134 3134 3135 3136 3136 3137 3139 3141 3143 3145 3146 3148 3150 3152 3154 3156 3158 3160 3162 3165 3166 3166 3167 3168 3169 3170 3171 3173 3174 3175 3176 3177 3178 3177 3177 3176 3176 3178 3180 3180 3180 3179 3178 3179 3179 3179 3180 3181 3180 3180 3180 3180 3180 3179 3178 3178 3177 3177 3176 3176
3128 3130 3130 3131 3131 3132 3133 3133 3134 3136 3138 3140 3142 3144 3145 3147 3149 3151 3153 3156 3158 3160 3162 3162 3163 3163 3164 3166 3167 3169 3171 3172 3172 3174 3175 3174 3173 3173 3171 3170 3172 3175 3175 3175 3174 3173 3173 3174 3174 3176 3177 3176 3176 3177 3177 3177 3176 3176 3175 3175 3174 3174 3174
3125 3126 3127 3128 3128 3129 3129 3131 3131 3133 3135 3137 3139 3141 3143 3145 3147 3149 3151 3153 3155 3157 3158 3158 3159 3159 3161 3163 3165 3166 3168 3169 3170 3170 3170 3169 3169 3169 3167 3166 3167 3169 3170 3169 3168 3168 3169 3169 3170 3171 3172 3172 3173 3173 3174 3174 3173 3173 3173 3172 3172 3172 3171
3122 3122 3123 3124 3125 3126 3127 3128 3129 3130 3132 3134 3136 3138 3140 3142 3144 3146 3148 3150 3152 3153 3154 3155 3155 3156 3158 3160 3162 3163 3164 3166 3166 3166 3166 3166 3166 3165 3164 3164 3164 3165 3165 3164 3163 3163 3164 3165 3166 3167 3167 3168 3169 3170 3170 3170 3170 3170 3170 3170 3170 3169 3169
3118 3119 3120 3121 3122 3123 3124 3125 3126 3127 3130 3131 3133 3135 3137 3139 3141 3143 3145 3147 3148 3150 3151 3151 3152 3153 3155 3157 3157 3159 3161 3162 3162 3163 3163 3163 3162 3161 3160 3161 3161 3160 3161 3160 3159 3159 3160 3160 3161 3162 3163 3165 3166 3167 3167 3167 3167 3167 3167 3167 3167 3167 3166
3115 3116 3116 3117 3119 3120 3121 3122 3123 3125 3127 3129 3130 3132 3134 3136 3138 3140 3142 3144 3145 3147 3147 3148 3149 3151 3152 3153 3153 3155 3156 3157 3158 3159 3159 3158 3157 3157 3156 3157 3157 3156 3156 3155 3155 3156 3156 3157 3157 3158 3159 3161 3163 3163 3164 3164 3164 3164 3164 3164 3164 3164 3164
3111 3113 3113 3114 3116 3117 3118 3119 3121 3122 3124 3126 3128 3130 3131 3133 3135 3137 3139 3140 3142 3143 3144 3144 3146 3147 3148 3149 3149 3151 3152 3152 3152 3154 3154 3154 3153 3153 3153 3152 3152 3151 3151 3151 3152 3152 3153 3154 3154 3155 3156 3158 3159 3160 3160 3161 3161 3161 3161 3161 3161 3161 3160
3108 3109 3110 3112 3112 3114 3115 3116 3118 3120 3121 3123 3125 3126 3128 3130 3132 3133 3135 3137 3138 3139 3140 3141 3142 3144 3144 3145 3146 3147 3148 3148 3148 3149 3150 3150 3149 3149 3149 3148 3147 3147 3147 3147 3147 3148 3149 3149 3150 3152 3153 3154 3155 3156 3157 3158 3158 3158 3158 3158 3158 3157 3157
3105 3106 3107 3108 3109 3111 3112 3113 3115 3116 3118 3120 3122 3123 3125 3127 3129 3130 3132 3133 3135 3136 3137 3138 3139 3140 3141 3142 3143 3143 3144 3144 3144 3145 3145 3145 3145 3145 3145 3144 3144 3143 3143 3143 3143 3143 3143 3143 3145 3147 3148 3150 3152 3153 3154 3154 3154 3155 3155 3154 3154 3154 3154
3101 3102 3103 3104 3105 3107 3108 3110 3112 3113 3115 3117 3118 3120 3121 3123 3125 3127 3128 3130 3131 3132 3134 3135 3136 3138 3138 3139 3139 3140 3140 3140 3141 3141 3141 3141 3140 3140 3140 3140 3140 3140 3139 3139 3138 3137 3138 3139 3140 3142 3144 3146 3148 3149 3150 3151 3151 3151 3151 3151 3151 3151 3150
3097 3098 3099 3100 3102 3104 3105 3106 3108 3111 3112 3113 3114 3115 3118 3120 3122 3123 3125 3127 3128 3130 3131 3133 3134 3134 3135 3135 3136 3136 3137 3137 3137 3137 3137 3137 3136 3136 3136 3136 3136 3136 3135 3134 3133 3133 3134 3135 3136 3138 3140 3141 3144 3146 3147 3147 3148 3148 3148 3148 3148 3147 3146
3092 3094 3095 3096 3098 3100 3101 3103 3106 3108 3108 3109 3110 3112 3114 3117 3119 3120 3122 3124 3125 3127 3129 3130 3130 3131 3131 3132 3132 3133 3133 3133 3133 3133 3133 3132 3132 3132 3132 3132 3132 3132 3131 3129 3129 3130 3130 3131 3132 3134 3136 3137 3140 3142 3143 3144 3144 3145 3145 3145 3144 3143 3143
3088 3089 3091 3093 3094 3096 3098 3099 3102 3104 3104 3105 3107 3109 3111 3114 3116 3117 3119 3121 3123 3125 3126 3126 3127 3127 3128 3128 3128 3129 3129 3129 3129 3129 3129 3128 3128 3128 3129 3128 3128 3128 3127 3126 3126 3126 3126 3127 3128 3129 3131 3134 3136 3137 3139 3140 3140 3141 3141 3141 3140 3140 3139
3084 3085 3087 3089 3090 3092 3094 3095 3097 3099 3100 3102 3104 3106 3108 3111 3112 3114 3117 3119 3120 3122 3122 3123 3123 3124 3124 3124 3125 3125 3126 3126 3126 3125 3125 3124 3125 3125 3125 3124 3124 3123 3123 3122 3122 3122 3122 3123 3124 3125 3127 3130 3131 3133 3135 3136 3136 3137 3138 3138 3137 3137 3137
3079 3081 3083 3085 3086 3088 3090 3091 3093 3094 3096 3098 3100 3103 3105 3108 3110 3112 3114 3116 3117 3118 3119 3120 3120 3120 3121 3121 3121 3122 3122 3122 3122 3121 3121 3121 3121 3120 3120 3120 3119 3119 3118 3118 3119 3118 3117 3118 3120 3122 3124 3126 3127 3129 3130 3131 3132 3132 3133 3134 3134 3134 3134
3074 3076 3078 3080 3082 3084 3086 3087 3088 3090 3092 3095 3097 3100 3102 3105 3107 3109 3111 3112 3113 3114 3115 3116 3116 3117 3117 3117 3118 3118 3119 3119 3118 3118 3117 3117 3116 3116 3116 3115 3115 3114 3114 3114 3115 3114 3113 3114 3116 3118 3120 3121 3123 3124 3125 3126 3127 3128 3129 3131 3131 3131 3131
3069 3071 3073 3075 3078 3080 3082 3083 3084 3087 3089 3092 3094 3096 3099 3101 3103 3105 3107 3109 3110 3111 3112 3113 3113 3113 3113 3114 3114 3115 3115 3115 3115 3114 3113 3113 3112 3112 3111 3111 3110 3110 3110 3110 3111 3110 3110 3111 3112 3114 3116 3117 3118 3120 3121 3122 3123 3124 3126 3128 3128 3128 3129
3064 3066 3069 3071 3074 3076 3078 3080 3082 3084 3086 3088 3091 3093 3095 3097 3100 3102 3104 3105 3107 3108 3108 3109 3109 3109 3110 3110 3111 3112 3112 3112 3111 3110 3110 3109 3108 3108 3107 3107 3106 3106 3105 3105 3106 3106 3107 3108 3109 3110 3112 3113 3114 3116 3118 3119 3120 3122 3123 3124 3125 3125 3126
3061 3063 3065 3067 3070 3073 3075 3077 3079 3081 3083 3086 3088 3090 3092 3095 3097 3099 3101 3102 3103 3104 3104 3105 3105 3105 3106 3107 3107 3108 3109 3109 3108 3107 3106 3105 3104 3103 3102 3102 3102 3101 3101 3101 3102 3103 3104 3104 3105 3106 3108 3108 3110 3113 3115 3116 3117 3119 3120 3121 3122 3122 3122
3057 3059 3061 3064 3067 3070 3073 3075 3076 3078 3080 3083 3085 3088 3091 3094 3096 3097 3097 3098 3099 3100 3100 3101 3101 3102 3103 3104 3104 3104 3105 3105 3104 3103 3102 3100 3099 3098 3097 3097 3097 3097 3097 3097 3098 3099 3099 3100 3101 3103 3104 3106 3108 3111 3112 3112 3113 3115 3117 3117 3118 3119 3118
3055 3057 3060 3062 3065 3068 3071 3073 3075 3077 3079 3082 3085 3088 3091 3094 3095 3094 3094 3094 3095 3096 3097 3098 3098 3099 3100 3101 3101 3101 3101 3100 3100 3099 3097 3096 3095 3093 3093 3092 3091 3092 3093 3093 3094 3095 3095 3096 3097 3099 3101 3103 3105 3107 3108 3109 3112 3113 3114 3114 3114 3115 3115
3053 3056 3059 3061 3064 3067 3070 3073 3076 3077 3080 3082 3084 3086 3089 3091 3091 3091 3091 3091 3092 3093 3094 3095 3095 3095 3096 3096 3097 3097 3097 3096 3095 3094 3093 3092 3090 3089 3088 3087 3087 3087 3089 3089 3089 3090 3091 3092 3094 3097 3098 3100 3103 3104 3106 3108 3110 3110 3110 3111 3111 3111 3111
3052 3055 3058 3061 3064 3066 3068 3071 3074 3076 3077 3079 3081 3083 3085 3086 3087 3088 3088 3089 3090 3090 3091 3091 3092 3091 3091 3092 3092 3093 3093 3092 3091 3090 3089 3088 3087 3085 3084 3083 3082 3083 3084 3084 3085 3086 3088 3090 3092 3095 3097 3098 3101 3102 3104 3106 3106 3106 3106 3107 3108 3108 3107
3052 3055 3057 3060 3062 3064 3066 3068 3070 3072 3075 3077 3079 3080 3082 3083 3083 3084 3085 3086 3086 3087 3087 3088 3088 3087 3088 3088 3089 3089 3089 3088 3087 3086 3085 3084 3083 3081 3080 3079 3079 3080 3080 3081 3082 3084 3085 3088 3091 3093 3094 3096 3098 3100 3101 3102 3102 3103 3103 3103 3103 3103 3103
3053 3055 3058 3060 3063 3064 3066 3067 3069 3071 3073 3074 3076 3077 3078 3079 3080 3080 3081 3082 3083 3083 3083 3084 3084 3084 3085 3085 3085 3085 3084 3084 3083 3082 3081 3080 3079 3078 3077 3077 3077 3078 3078 3079 3081 3083 3084 3087 3089 3091 3092 3094 3096 3098 3099 3099 3099 3100 3100 3099 3099 3098 3098
3054 3057 3059 3061 3063 3064 3066 3067 3068 3070 3071 3072 3073 3074 3075 3075 3076 3077 3078 3079 3079 3079 3080 3080 3081 3081 3081 3081 3081 3081 3080 3080 3080 3079 3078 3077 3076 3075 3074 3074 3074 3075 3077 3079 3080 3082 3084 3086 3088 3089 3090 3092 3094 3095 3096 3096 3095 3096 3096 3096 3095 3095 3094
3054 3056 3058 3060 3061 3062 3064 3065 3066 3067 3068 3069 3071 3071 3072 3073 3074 3075 3075 3076 3076 3076 3076 3077 3077 3077 3077 3077 3077 3077 3077 3077 3076 3076 3075 3074 3073 3073 3073 3073 3073 3074 3075 3077 3079 3081 3083 3085 3086 3087 3089 3090 3091 3092 3092 3092 3092 3092 3092 3092 3092 3091 3091
3052 3055 3057 3058 3059 3060 3062 3063 3064 3065 3066 3067 3068 3068 3069 3070 3071 3072 3072 3072 3072 3073 3073 3074 3074 3073 3073 3073 3073 3074 3074 3073 3073 3072 3072 3071 3070 3071 3071 3072 3073 3073 3074 3076 3079 3081 3082 3083 3084 3086 3087 3088 3088 3089 3089 3088 3088 3088 3088 3088 3088 3088 3087